Regional Weather Roundup
Issued by NWS

Home | Current Version | Previous Version | Graphics & Text | Print | Product List | Glossary Off
Versions: 1 2 3 4 5 6 7 8 9 10 11 12 13 14 15 16 17 18 19 20 21 22 23 24 25 26 27 28 29 30 31 32 33 34 35 36 37 38 39 40 41 42 43 44 45 46 47 48 49 50

000
ASUS43 KTOP 021208
RWRKS

WEATHER ROUNDUP FOR KANSAS
NATIONAL WEATHER SERVICE GOODLAND KS
700 AM CDT TUE SEP 02 2014

NOTE:  "FAIR" INDICATES FEW OR NO CLOUDS BELOW 12,000 FEET WITH NO
SIGNIFICANT WEATHER AND/OR OBSTRUCTIONS TO VISIBILITY.

KSZ001>006-013>018-027>032-041>047-021300-
NORTHWEST KANSAS

CITY           SKY/WX    TMP DP  RH WIND       PRES   REMARKS
GOODLAND       CLEAR     54  53  97 S10       30.08R
6HR MIN TEMP:  53; 6HR MAX TEMP:  65;

HAYS           PTCLDY    61  54  77 CALM      30.02R
HILL CITY      CLEAR     58  55  90 CALM      30.04R
6HR MIN TEMP:  57; 6HR MAX TEMP:  64;

RUSSELL        PTCLDY    62  59  90 N6        30.00R
6HR MIN TEMP:  61; 6HR MAX TEMP:  67; 6HR PCP: TRACE;

$$

KSZ061>065-074>080-084>089-021300-
SOUTHWEST KANSAS

CITY           SKY/WX    TMP DP  RH WIND       PRES   REMARKS
DODGE CITY     CLOUDY    66  64  93 NE10      30.00S FOG
6HR MIN TEMP:  64; 6HR MAX TEMP:  67; 6HR PCP:  0.04;

ELKHART          N/A     66  63  90 N2          N/A
GARDEN CITY    CLOUDY    65  64  97 E13       30.03S FOG
6HR MIN TEMP:  64; 6HR MAX TEMP:  66; 6HR PCP: TRACE;

GREAT BEND     MOCLDY    66  61  82 NE5       30.00R
LIBERAL        MOCLDY    68  63  83 NE12      30.02R
PRATT          CLOUDY    68  66  94 NE5       30.00R FOG
$$

KSZ066>073-081>083-090>101-021300-
SOUTHEAST KANSAS

CITY           SKY/WX    TMP DP  RH WIND       PRES   REMARKS
CHANUTE        CLOUDY    70  68  93 S8        29.96R
6HR MIN TEMP:  70; 6HR MAX TEMP:  72; 6HR PCP:  0.12;

COFFEYVILLE    LGT RAIN  70  68  93 S9        29.94S
6HR MIN TEMP:  68; 6HR MAX TEMP:  73;

HUTCHINSON     CLOUDY    70  67  90 N7        29.97R
6HR MIN TEMP:  68; 6HR MAX TEMP:  71;

MEDICINE LODGE   N/A     67  65  93 N5        29.95R
NEWTON         CLOUDY    68  63  83 NE6       30.00R
PARSONS        LGT RAIN  69  66  90 S3        29.98R
6HR MIN TEMP:  68; 6HR MAX TEMP:  71; 6HR PCP:  0.05;

WICHITA INTL   CLOUDY    72  68  87 N5        29.95R
6HR MIN TEMP:  72; 6HR MAX TEMP:  74;

WICHITA JABRA  CLOUDY    69  68  96 NE3       29.95R
6HR MIN TEMP:  69; 6HR MAX TEMP:  72;

WICHITA MCCONL CLOUDY    71  71 100 NE2       29.96R
WINFIELD       LGT RAIN  71  69  93 E9        29.93F
6HR MIN TEMP:  71; 6HR MAX TEMP:  75; 6HR PCP:  0.35;

$$

KSZ007>012-019>026-033>040-048>060-102>105-021300-
NORTHEAST KANSAS

CITY           SKY/WX    TMP DP  RH WIND       PRES   REMARKS
CONCORDIA      CLEAR     58  58 100 NW7       29.99R
6HR MIN TEMP:  57; 6HR MAX TEMP:  63;

EMPORIA        CLOUDY    70  69  97 NE5       29.97R FOG
6HR MIN TEMP:  69; 6HR MAX TEMP:  70;

LAWRENCE       FOG      N/A N/A N/A CALM      29.96R VSB 1/2
MANHATTAN      CLOUDY    62  61  96 CALM      29.96R
6HR MIN TEMP:  62; 6HR MAX TEMP:  68;

OLATHE IND     FOG       69  69 100 SE5       29.95R VSB 1/2
6HR MIN TEMP:  67; 6HR MAX TEMP:  70;

OLATHE EXE     CLOUDY    68  68 100 CALM      29.94R FOG
6HR MIN TEMP:  68; 6HR MAX TEMP:  70;

SALINA         CLOUDY    66  61  84 N3        29.98R
6HR MIN TEMP:  66; 6HR MAX TEMP:  70;

TOPEKA BILLARD CLOUDY    67  67 100 CALM      29.95R FOG
6HR MIN TEMP:  67; 6HR MAX TEMP:  71;

TOPEKA FORBES  FOG       68  67  96 CALM      29.95R VSB 1/4
6HR MIN TEMP:  68; 6HR MAX TEMP:  71;

$$


USA.gov is the U.S. government's official web portal to all federal, state and local government web resources and services.